TimeSAST,TemperatureF,Dew PointF,Humidity,Sea Level PressureIn,VisibilityMPH,Wind Direction,Wind SpeedMPH,Gust SpeedMPH,PrecipitationIn,Events,Conditions,WindDirDegrees,DateUTC
12:00 AM,55.4,46.4,72,29.80,-9999.0,NNE,4.6,-,N/A,,Clear,20,2011-10-22 22:00:00
1:00 AM,53.6,48.2,82,29.80,6.2,NNE,3.5,-,N/A,,Partly Cloudy,20,2011-10-22 23:00:00
2:00 AM,54,49,76,29.82,12,NNE,4.6,,,,,20,2011-10-23 00:00:00
3:00 AM,53.6,50.0,88,29.80,-9999.0,North,4.6,-,N/A,,Clear,10,2011-10-23 01:00:00
4:00 AM,50.0,46.4,87,29.80,-9999.0,West,3.5,-,N/A,,Clear,280,2011-10-23 02:00:00
5:00 AM,52,48,82,29.82,12,NW,3.5,,,,,310,2011-10-23 03:00:00
5:00 AM,51.8,50.0,94,29.80,-9999.0,NW,3.5,-,N/A,,Clear,310,2011-10-23 03:00:00
6:00 AM,51.8,50.0,94,29.83,6.2,NNW,4.6,-,N/A,,Partly Cloudy,340,2011-10-23 04:00:00
6:21 AM,55.4,51.8,88,29.86,6.2,NNW,5.8,-,N/A,,Partly Cloudy,330,2011-10-23 04:21:00
6:51 AM,59.0,53.6,82,29.89,6.2,NW,4.6,-,N/A,,Partly Cloudy,310,2011-10-23 04:51:00
7:00 AM,59.0,51.8,77,29.89,-9999.0,NW,4.6,-,N/A,,Clear,310,2011-10-23 05:00:00
7:25 AM,62.6,53.6,72,29.89,-9999.0,WNW,5.8,-,N/A,,Clear,290,2011-10-23 05:25:00
8:00 AM,64,51,54,29.88,19,WNW,12.7,,,,Scattered Clouds,290,2011-10-23 06:00:00
8:00 AM,64.4,51.8,64,29.89,6.2,WNW,11.5,-,N/A,,Partly Cloudy,290,2011-10-23 06:00:00
9:00 AM,66.2,50.0,56,29.89,6.2,West,12.7,-,N/A,,Partly Cloudy,260,2011-10-23 07:00:00
9:24 AM,69.8,50.0,49,29.89,6.2,WSW,11.5,-,N/A,,Partly Cloudy,240,2011-10-23 07:24:00
10:00 AM,69.8,50.0,49,29.89,6.2,SSW,15.0,-,N/A,,Partly Cloudy,210,2011-10-23 08:00:00
11:00 AM,70,48,35,29.88,31,SSW,12.7,,,,Scattered Clouds,210,2011-10-23 09:00:00
11:00 AM,69.8,48.2,46,29.89,6.2,SSW,12.7,-,N/A,,Partly Cloudy,210,2011-10-23 09:00:00
12:00 PM,69.8,48.2,46,29.89,6.2,South,12.7,-,N/A,,Partly Cloudy,190,2011-10-23 10:00:00
1:00 PM,69.8,48.2,46,29.86,6.2,South,12.7,-,N/A,,Partly Cloudy,180,2011-10-23 11:00:00
2:00 PM,68,51,45,29.88,12,SSW,13.8,,,,Scattered Clouds,200,2011-10-23 12:00:00
2:00 PM,68.0,50.0,52,29.89,6.2,SSW,13.8,-,N/A,,Partly Cloudy,200,2011-10-23 12:00:00
3:00 PM,64.4,53.6,68,29.89,6.2,SSW,12.7,-,N/A,,Scattered Clouds,210,2011-10-23 13:00:00
4:00 PM,62.6,53.6,72,29.89,6.2,SSW,11.5,-,N/A,,Scattered Clouds,210,2011-10-23 14:00:00
5:00 PM,64,52,55,29.91,12,SSW,11.5,,,,Mostly Cloudy,200,2011-10-23 15:00:00
5:00 PM,62.6,51.8,68,29.92,6.2,SSW,11.5,-,N/A,,Mostly Cloudy,200,2011-10-23 15:00:00
6:00 PM,60.8,51.8,72,29.92,6.2,SSW,8.1,-,N/A,,Mostly Cloudy,210,2011-10-23 16:00:00
7:00 PM,60.8,51.8,72,29.95,6.2,Variable,2.3,-,N/A,,Mostly Cloudy,0,2011-10-23 17:00:00
8:00 PM,60,51,63,29.95,12,West,3.5,,,,Mostly Cloudy,270,2011-10-23 18:00:00
8:00 PM,60.8,50.0,68,29.95,6.2,West,3.5,-,N/A,,Mostly Cloudy,270,2011-10-23 18:00:00
9:00 PM,60.8,50.0,68,29.95,6.2,WNW,3.5,-,N/A,,Overcast,300,2011-10-23 19:00:00
10:00 PM,59.0,50.0,72,29.95,6.2,NW,3.5,-,N/A,,Partly Cloudy,320,2011-10-23 20:00:00
11:00 PM,55.4,50.0,82,29.92,-9999.0,North,3.5,-,N/A,,Clear,360,2011-10-23 21:00:00